SL-16 DEB, 22349

Orbit data source: Space-Track

SL-16 DEB, 22349 is space debris in LEO originally from a launch on Fri, 25 Dec 1992 UTC launched from the Tyuratam Missile And Space Complex (TTMTR). Debris objects in space refer to the collection of defunct objects orbiting the Earth. Examples of debris include non-operational satellites, rocket bodies, and fragments generated from explosions, collisions, or faulty payload assembly.

Loading next visibility...
Identifier
22349, 1992-093AN
Orbit
LEO
Country
Flag of CISCIS
Related business
Manufacturer
Unknown
Mission
Spacecraft
Bus & Motor
Unknown
Mass
Unknown
Launch date (UTC)
1992-12-25 (33 years ago)
Launch vehicle
Unknown
Launch site
Tyuratam Missile And Space Complex (TTMTR)
Object type
Payload
Rocket body
Debris
Shape & HBR
Unknown shape, 0.2 m
Radar Cross Section
Small (<0.1 m²)

Expand to show TLE details & history
Last TLE update: 19 hours ago

TLE from 19 hours ago
0 SL-16 DEB
1 22349U 92093AN  26036.70152042  .00000355  00000-0  32411-3 0  9998
2 22349  70.8182 205.2149 0183158 341.6552  97.0775 13.82669666664704
Epoch: 2026-02-05T16:50Z
TLE epoch observation values (Epoch: 2026-02-05T16:50:11.364Z)
Latitude
68.90084°
Longitude
-119.42706°
Altitude
984.765 km
Speed
7.356 km/s
True Right ascension
17h 55m 52s
True Declination
68° 47' 19"
Sunlit
Object was in daylight at epoch
Visualization orbit readout
Latitude
Unknown
Longitude
Unknown
Altitude
Unknown
Speed
Unknown
Apparent Right ascension
Unknown
Apparent Declination
Unknown
Sunlit
N/A
Visualization observer readout
Local Sidereal Time
13:56:09
Azimuth
Unknown
Elevation
Unknown
Doppler factor
Unknown
Orbital elements
Apogee altitude
1,086.671 km
Perigee altitude
818.142 km
Semi-major axis
7,330.543 km
Eccentricity
0.01832
Inclination
70.8182°
RAAN
205.2149°
Arg. of periapsis
341.6552°
True anomaly
99.15403°
Mean anomaly
97.0775°
Eccentric anomaly
98.11641°
Mean motion
3.45811 °/min
Orbital period
104.1 mins
BSTAR
0.00032411
Loading maneuver chart data...
Computing Atmospheric mass density...
Loading historical data...
Loading historical data...
Loading historical data...
Loading historical data...
Loading historical data...
Loading historical data...
Loading historical data...

Documentation

Showing up to 5 results
|